When you browse on this site, cookies collect data to enhance your experience and personalize the content and advertising you see.
Visit our Privacy Policy to learn more. By continuing to use the site, you agree to this use of cookies and data.
  • In Österreich
  • Länderverzeichnis
  • Für 7 Tage
  • Wassertemperatur
  • Wetterkarte
  • News
  • Widgets
  • user-avatar
    Anmelden

    Stündliche Wetter Bihać

    Heute, 18 Oktober, Freitag

    Zeit Temperatur Niederschläge Wind Luftdruck Luftfeuchtigkeit
    00:00 +10°C° 0 mm 0 m/S 711 mmHg 84%
    01:00 +11°C° 0 mm 1 m/S 711 mmHg 86%
    02:00 +10°C° 0 mm 1 m/S 711 mmHg 87%
    03:00 +10°C° 0 mm 1 m/S 711 mmHg 88%
    04:00 +10°C° 0 mm 1 m/S 711 mmHg 89%
    05:00 +10°C° 0 mm 1 m/S 711 mmHg 87%
    06:00 +11°C° 0 mm 1 m/S 711 mmHg 85%
    07:00 +11°C° 0 mm 1 m/S 711 mmHg 84%
    08:00 +13°C° 0 mm 1 m/S 711 mmHg 74%
    09:00 +15°C° 0 mm 1 m/S 712 mmHg 65%
    10:00 +18°C° 0 mm 1 m/S 712 mmHg 55%
    11:00 +19°C° 0 mm 1 m/S 712 mmHg 55%
    12:00 +18°C° 0 mm 2 m/S 712 mmHg 55%
    13:00 +19°C° 0 mm 2 m/S 712 mmHg 55%
    14:00 +18°C° 0 mm 2 m/S 712 mmHg 59%
    15:00 +17°C° 0 mm 2 m/S 711 mmHg 63%
    16:00 +18°C° 0 mm 1 m/S 711 mmHg 67%
    17:00 +15°C° 0 mm 1 m/S 711 mmHg 72%
    18:00 +14°C° 0 mm 1 m/S 711 mmHg 77%
    19:00 +12°C° 0 mm 1 m/S 710 mmHg 81%
    20:00 +12°C° 0 mm 1 m/S 711 mmHg 81%
    21:00 +12°C° 0 mm 1 m/S 711 mmHg 81%
    22:00 +12°C° 0 mm 1 m/S 711 mmHg 80%
    23:00 +12°C° 0 mm 1 m/S 711 mmHg 80%

    Morgen, 19 Oktober, Samstag

    Zeit Temperatur Niederschläge Wind Luftdruck Luftfeuchtigkeit
    00:00 +11°C° 0 mm 1 m/S 711 mmHg 81%
    01:00 +11°C° 0 mm 1 m/S 711 mmHg 81%
    02:00 +11°C° 0 mm 1 m/S 710 mmHg 81%
    03:00 +11°C° 0 mm 1 m/S 710 mmHg 82%
    04:00 +11°C° 0 mm 1 m/S 710 mmHg 83%
    05:00 +10°C° 0 mm 2 m/S 710 mmHg 82%
    06:00 +10°C° 0 mm 2 m/S 710 mmHg 81%
    07:00 +10°C° 0 mm 2 m/S 710 mmHg 80%
    08:00 +13°C° 0 mm 2 m/S 711 mmHg 74%
    09:00 +14°C° 0 mm 3 m/S 711 mmHg 68%
    10:00 +17°C° 0 mm 3 m/S 711 mmHg 61%
    11:00 +18°C° 0 mm 3 m/S 711 mmHg 62%
    12:00 +19°C° 0 mm 4 m/S 711 mmHg 62%
    13:00 +19°C° 0 mm 4 m/S 711 mmHg 62%
    14:00 +19°C° 0 mm 4 m/S 711 mmHg 68%
    15:00 +18°C° 0 mm 3 m/S 711 mmHg 73%
    16:00 +17°C° 0 mm 3 m/S 711 mmHg 79%
    17:00 +16°C° 0 mm 3 m/S 711 mmHg 84%
    18:00 +14°C° 0 mm 3 m/S 711 mmHg 89%
    19:00 +14°C° 0 mm 2 m/S 711 mmHg 95%
    20:00 +14°C° 0 mm 2 m/S 711 mmHg 94%
    21:00 +14°C° 0 mm 2 m/S 711 mmHg 93%
    22:00 +13°C° 0 mm 2 m/S 711 mmHg 92%
    23:00 +13°C° 0 mm 2 m/S 711 mmHg 92%

    übermorgen, 20 Oktober, Sonntag

    Zeit Temperatur Niederschläge Wind Luftdruck Luftfeuchtigkeit
    00:00 +13°C° 0 mm 2 m/S 711 mmHg 91%
    01:00 +13°C° 0 mm 2 m/S 711 mmHg 91%
    02:00 +13°C° 0 mm 2 m/S 711 mmHg 91%
    03:00 +13°C° 0 mm 2 m/S 711 mmHg 91%
    04:00 +13°C° 0 mm 2 m/S 711 mmHg 92%
    05:00 +12°C° 0 mm 3 m/S 711 mmHg 91%
    06:00 +12°C° 0 mm 3 m/S 711 mmHg 90%
    07:00 +12°C° 0 mm 3 m/S 711 mmHg 89%
    08:00 +14°C° 0 mm 3 m/S 712 mmHg 83%
    09:00 +17°C° 0 mm 3 m/S 712 mmHg 77%
    10:00 +19°C° 0 mm 4 m/S 713 mmHg 71%
    11:00 +19°C° 0 mm 4 m/S 713 mmHg 69%
    12:00 +20°C° 0 mm 4 m/S 713 mmHg 67%
    13:00 +20°C° 0 mm 4 m/S 712 mmHg 65%
    14:00 +20°C° 0 mm 4 m/S 712 mmHg 69%
    15:00 +19°C° 0 mm 3 m/S 712 mmHg 73%
    16:00 +18°C° 0 mm 3 m/S 712 mmHg 76%
    17:00 +17°C° 0 mm 3 m/S 712 mmHg 82%
    18:00 +16°C° 0 mm 3 m/S 712 mmHg 87%
    19:00 +14°C° 0 mm 2 m/S 712 mmHg 92%
    20:00 +14°C° 0 mm 2 m/S 712 mmHg 90%
    21:00 +14°C° 0 mm 2 m/S 713 mmHg 88%
    22:00 +14°C° 0 mm 2 m/S 713 mmHg 86%
    23:00 +14°C° 0 mm 2 m/S 713 mmHg 84%

    21 Oktober, Montag

    Zeit Temperatur Niederschläge Wind Luftdruck Luftfeuchtigkeit
    00:00 +14°C° 0 mm 2 m/S 713 mmHg 82%
    01:00 +13°C° 0 mm 2 m/S 713 mmHg 80%
    02:00 +13°C° 0 mm 2 m/S 713 mmHg 78%
    03:00 +13°C° 0 mm 2 m/S 713 mmHg 77%
    04:00 +13°C° 0 mm 2 m/S 713 mmHg 76%
    05:00 +13°C° 0 mm 2 m/S 713 mmHg 76%
    06:00 +14°C° 0 mm 2 m/S 713 mmHg 76%
    07:00 +14°C° 0 mm 2 m/S 713 mmHg 76%
    08:00 +16°C° 0 mm 2 m/S 713 mmHg 70%
    09:00 +18°C° 0 mm 2 m/S 714 mmHg 64%
    10:00 +20°C° 0 mm 2 m/S 714 mmHg 59%
    11:00 +21°C° 0 mm 2 m/S 714 mmHg 56%
    12:00 +21°C° 0 mm 2 m/S 714 mmHg 54%
    13:00 +23°C° 0 mm 2 m/S 714 mmHg 52%
    14:00 +21°C° 0 mm 2 m/S 714 mmHg 57%
    15:00 +22°C° 0 mm 1 m/S 714 mmHg 62%
    16:00 +21°C° 0 mm 1 m/S 714 mmHg 67%
    17:00 +19°C° 0 mm 1 m/S 714 mmHg 71%
    18:00 +18°C° 0 mm 1 m/S 714 mmHg 75%
    19:00 +14°C° 0 mm 0 m/S 714 mmHg 79%
    20:00 +14°C° 0 mm 0 m/S 714 mmHg 76%
    21:00 +14°C° 0 mm 0 m/S 714 mmHg 74%
    22:00 +14°C° 0 mm 0 m/S 714 mmHg 71%
    23:00 +15°C° 0 mm 1 m/S 714 mmHg 69%

    22 Oktober, Dienstag

    Zeit Temperatur Niederschläge Wind Luftdruck Luftfeuchtigkeit
    00:00 +15°C° 0 mm 1 m/S 714 mmHg 67%
    01:00 +15°C° 0 mm 1 m/S 714 mmHg 65%
    02:00 +15°C° 0 mm 1 m/S 714 mmHg 66%
    03:00 +14°C° 0 mm 1 m/S 714 mmHg 67%
    04:00 +14°C° 0 mm 1 m/S 714 mmHg 68%
    05:00 +14°C° 0 mm 2 m/S 714 mmHg 72%
    06:00 +14°C° 0 mm 2 m/S 714 mmHg 76%
    07:00 +14°C° 0 mm 2 m/S 714 mmHg 79%
    08:00 +15°C° 0 mm 2 m/S 715 mmHg 76%
    09:00 +17°C° 0 mm 2 m/S 715 mmHg 72%
    10:00 +19°C° 0 mm 2 m/S 715 mmHg 68%
    11:00 +20°C° 0 mm 2 m/S 715 mmHg 65%
    12:00 +21°C° 0 mm 2 m/S 715 mmHg 62%
    13:00 +23°C° 0 mm 2 m/S 715 mmHg 59%
    14:00 +21°C° 0 mm 2 m/S 715 mmHg 65%
    15:00 +20°C° 0 mm 2 m/S 715 mmHg 70%
    16:00 +19°C° 0 mm 2 m/S 714 mmHg 76%
    17:00 +17°C° 0 mm 2 m/S 714 mmHg 80%
    18:00 +16°C° 0 mm 2 m/S 714 mmHg 85%
    19:00 +14°C° 0 mm 2 m/S 714 mmHg 90%
    20:00 +14°C° 0 mm 2 m/S 714 mmHg 90%
    21:00 +14°C° 0 mm 2 m/S 714 mmHg 90%
    22:00 +13°C° 0 mm 2 m/S 714 mmHg 91%
    23:00 +13°C° 0 mm 2 m/S 714 mmHg 91%

    23 Oktober, Mittwoch

    Zeit Temperatur Niederschläge Wind Luftdruck Luftfeuchtigkeit
    00:00 +13°C° 0 mm 2 m/S 714 mmHg 91%
    01:00 +13°C° 0 mm 2 m/S 714 mmHg 91%
    02:00 +12°C° 0 mm 2 m/S 713 mmHg 90%
    03:00 +12°C° 0 mm 2 m/S 713 mmHg 90%
    04:00 +12°C° 0 mm 2 m/S 713 mmHg 89%
    05:00 +12°C° 0 mm 2 m/S 713 mmHg 88%
    06:00 +12°C° 0 mm 1 m/S 713 mmHg 87%
    07:00 +12°C° 0 mm 1 m/S 713 mmHg 86%
    08:00 +15°C° 0 mm 1 m/S 713 mmHg 78%
    09:00 +19°C° 0 mm 1 m/S 713 mmHg 69%
    10:00 +19°C° 0 mm 0 m/S 714 mmHg 60%
    11:00 +22°C° 0 mm 1 m/S 714 mmHg 56%
    12:00 +23°C° 0 mm 1 m/S 714 mmHg 51%
    13:00 +24°C° 0 mm 1 m/S 714 mmHg 47%
    14:00 +23°C° 0 mm 1 m/S 713 mmHg 52%
    15:00 +22°C° 0 mm 1 m/S 713 mmHg 57%
    16:00 +21°C° 0 mm 1 m/S 712 mmHg 63%
    17:00 +19°C° 0 mm 1 m/S 712 mmHg 67%
    18:00 +18°C° 0 mm 1 m/S 712 mmHg 71%
    19:00 +15°C° 0 mm 1 m/S 712 mmHg 75%
    20:00 +15°C° 0 mm 1 m/S 712 mmHg 75%
    21:00 +14°C° 0 mm 1 m/S 712 mmHg 75%
    22:00 +14°C° 0 mm 1 m/S 712 mmHg 75%
    23:00 +14°C° 0 mm 1 m/S 712 mmHg 75%
    Mehr zeigen